Location: Recife
(8.0585°S, 34.8848°W)
Time: 21:27:09
(UTC-03:00)

Explorer 11/Cluster Stage 4 - Pass Details

Date: 19 April 2026
Orbit: 463 x 1174 km, 28.8° (Epoch: 16 May)

Event Time Altitude Azimuth Distance (km) Brightness Sun altitude
Rises 16:11:42 0° 320° (NW) 3,987 11.1 14.6°
Reaches altitude 10° 16:15:01 10° 330° (NNW) 2,969 10.3 13.8°
Maximum altitude 16:21:17 30° 28° (NNE) 1,729 8.3 12.3°
Drops below altitude 10° 16:26:49 10° 88° (E) 2,601 8.7 10.9°
Sets 16:29:31 0° 99° (E) 3,424 9.2 10.3°
